Flag for Germany Weather past 2 weeks in Dortmund, North Rhine-Westphalia, Germany

Now
48 °F

Passing clouds.


Feels Like: 45 °F
Forecast: 44 / 54 °F
Wind: 7 mph from Northwest

Location: Dortmund / Wickede

Current Time: Oct 22, 2014 at 11:43:30 PM

Latest Report: Oct 22, 2014 at 10:50 PM


Visibility: N/A

Pressure: 30.15 "Hg

Humidity: 76%

Dew point: 41 °F

Location of DortmundLocation

Historic Weather in Dortmund — Graph

°F

Dortmund temperature yesterday

Maximum temperature yesterday: 55 °F (at 11:20 AM)
Minimum temperature yesterday: 46 °F (at 9:20 PM)
Average temperature yesterday: 52 °F

Past Weeks' High & Low Weather Summary

 TemperatureHumidityPressure
High73 °F (Oct 19, 2:20 PM)94% (Oct 11, 7:50 AM)30.15 "Hg (Oct 11, 7:50 AM)
Low45 °F (Oct 22, 5:20 AM)49% (Oct 10, 2:50 PM)29.47 "Hg (Oct 21, 4:20 PM)
Average57 °F75%29.85 "Hg
* Reported Oct 7 10:20 PM — Oct 22 10:20 PM, Dortmund, Weather by CustomWeather, © 2014

Note: Actual official high and low records may vary slightly from our data, if they occured in-between our weather recording intervals... More about our weather records

Advertising

Dortmund weather history for previous 24 hours

 ConditionsComfort  
Time TempWeatherWind HumidityBarometerVisibility
10:20 PM
Oct 22
48 °FPassing clouds.10 mph76%30.15 "HgN/A
9:50 PM48 °FPassing clouds.10 mph76%30.15 "HgN/A
9:20 PM48 °FPassing clouds.10 mph76%30.12 "HgN/A
8:50 PM48 °FPassing clouds.9 mph76%30.12 "HgN/A
8:20 PM48 °FClear.12 mph76%30.12 "Hg10 mi
7:50 PM48 °FPassing clouds.12 mph82%30.09 "HgN/A
7:20 PM48 °FSunny.15 mph76%30.09 "Hg10 mi
6:50 PM48 °FSunny.13 mph76%30.07 "Hg10 mi
6:20 PM48 °FScattered showers. Partly sunny.10 mph76%30.07 "HgN/A
5:50 PM48 °FScattered showers. Partly sunny.15 mph76%30.04 "HgN/A
5:20 PM50 °FScattered showers. Scattered clouds.15 mph71%30.04 "HgN/A
4:50 PM50 °FSprinkles. Partly sunny.18 mph71%30.04 "HgN/A
4:20 PM52 °FScattered showers. Scattered clouds.17 mph72%30.01 "HgN/A
3:50 PM52 °FScattered showers. Partly sunny.20 mph72%30.01 "HgN/A
3:20 PM50 °FScattered showers. Scattered clouds.16 mph82%30.01 "HgN/A
2:50 PM50 °FDrizzle. Partly sunny.18 mph76%30.01 "Hg6 mi
2:20 PM50 °FPartly sunny.21 mph76%29.98 "HgN/A
1:50 PM50 °FPartly sunny.17 mph76%30.01 "HgN/A
1:20 PM48 °FLight rain. Partly sunny.20 mph76%29.98 "HgN/A
12:50 PM48 °FPartly sunny.22 mph76%29.98 "HgN/A
12:20 PM48 °FPartly sunny.20 mph76%29.98 "HgN/A
11:50 AM46 °FLight rain. Scattered clouds.21 mph82%29.98 "HgN/A
11:20 AM45 °FLight rain. Broken clouds.20 mph87%29.98 "HgN/A
10:50 AM45 °FLight rain. Partly sunny.16 mph87%29.95 "HgN/A
10:20 AM45 °FPartly sunny.16 mph87%29.95 "HgN/A
9:50 AM45 °FBroken clouds.17 mph81%29.95 "HgN/A
9:20 AM45 °FLight rain. Broken clouds.17 mph81%29.95 "HgN/A
8:50 AM45 °FPassing clouds.15 mph81%29.92 "HgN/A
8:20 AM45 °FLight rain. Partly cloudy.17 mph81%29.92 "HgN/A
7:50 AM45 °FLight rain. Passing clouds.17 mph81%29.89 "HgN/A
7:20 AM45 °FLight rain. Passing clouds.20 mph81%29.89 "HgN/A
6:50 AM45 °FPassing clouds.17 mph81%29.89 "HgN/A
6:20 AM45 °FPassing clouds.17 mph81%29.86 "HgN/A
5:50 AM45 °FLight rain. Passing clouds.18 mph81%29.86 "HgN/A
5:20 AM45 °FLight rain. Clear.18 mph81%29.83 "HgN/A
Weather by CustomWeather, © 2014

See weather overviewHow to use our weather pages